Charleville-Mézières

France     49˚45′20″N   4˚42′26″E
temp.,
°C
wind,
m/s
gust,
m/s
humid.,
%
clouds,
%
prec.,
mm/h
press.,
hPa
HPBL,
m
28 november, sat
sat2801:00+2˚ese23810 0.0 101851
04:00+2˚ese24750 0.0 101863
07:00+2˚e23770 0.0 101834
10:00+4˚e28720 0.0 1018256
13:00+10˚e26580 0.0 1018294
16:00+8˚ene23680 0.0 101849
19:00+4˚ne33730 0.0 101953
22:00+4˚ne35720 0.0 1020103
29 november, sun
sun2901:00+3˚ene23800 0.0 102153
04:00+2˚ne238234 0.0 102145
07:00+1˚ne338747 0.0 102269
10:00+3˚ene377452 0.0 1023266
13:00+7˚ene245753 0.0 1023374
16:00+5˚ene226983 0.0 102322
19:00ene228250 0.0 102523
22:00−1˚ene227822 0.0 102524
30 november, mon
mon3001:00−2˚ne127911 0.0 102621
04:00−2˚ne11780 0.0 102621
07:00−2˚e01790 0.0 102621
10:00+1˚sw11680 0.0 1027100
13:00+4˚sw22590 0.0 1027391
16:00+3˚sw247221 0.0 1025129
19:00+2˚ssw257257 0.0 1024197
22:00+1˚ssw3693100 2.4 1022304
1 december, tue
tue101:00+2˚s2499100 4.0 1020166
04:00+6˚wsw3899100 1.9 1018327
07:00+6˚nw41195100 4.0 1017680
10:00+5˚nw3119119 0.1 1017630
13:00+5˚wnw3109643 2.2 1017817
16:00+5˚nnw31292100 2.6 1017802
19:00+5˚nnw31195100 3.6 1018535
22:00+5˚n3996100 0.0 1019442
2 december, wed
wed201:00+5˚nnw379698 0.1 1019329
04:00+4˚nne379489 0.1 1019314
07:00+4˚nne368995 0.1 1020366
10:00+4˚nne359099 0.0 1020307
13:00+6˚n238299 0.1 1020381
16:00+5˚n1386100 0.1 1019154
19:00+3˚n129293 0.1 101925
22:00+2˚nnw0193100 0.0 101922